FW3227 Weather Reports


Display with metric or nautical units.
time (UTC)temp
F
wind
direction
speed
MPH
gust
MPH
rain 1hr
in
rain 24hr
in
rain mn
in
humidity
%
barometer
mb
20260901211041 83 214 0.0 7.0 0.00 0.01 0.00 28 1006.4
20260901210545 84 214 0.0 7.0 0.00 0.01 0.00 27 1006.4
20260901210040 84 214 0.0 0.0 0.00 0.01 0.00 27 1006.5
20260901205539 85 214 0.0 0.0 0.00 0.01 0.00 28 1006.5
20260901205039 85 214 0.0 0.0 0.00 0.01 0.00 26 1006.5
20260901204541 85 214 0.0 0.0 0.00 0.01 0.00 27 1006.6
20260901204038 85 214 0.0 0.0 0.00 0.01 0.00 27 1006.7
20260901203541 85 214 0.0 3.0 0.00 0.01 0.00 27 1006.8
20260901203044 85 214 0.0 3.0 0.00 0.01 0.00 29 1006.8
20260901202538 84 220 0.0 1.0 0.00 0.01 0.00 26 1006.8
20260901202040 84 220 0.0 2.0 0.00 0.01 0.00 27 1006.8
20260901201537 85 220 0.0 7.0 0.00 0.01 0.00 26 1006.9
20260901201037 85 178 0.0 11.0 0.00 0.01 0.00 27 1006.9
20260901200535 85 173 1.0 11.0 0.00 0.01 0.00 27 1007.0
20260901200034 85 201 0.0 0.0 0.00 0.01 0.00 28 1007.0
20260901195533 85 201 0.0 1.0 0.00 0.01 0.00 33 1007.0
20260901195034 84 201 0.0 1.0 0.00 0.01 0.00 28 1007.1
20260901194531 84 201 0.0 0.0 0.00 0.01 0.00 26 1007.2
20260901194033 84 201 0.0 4.0 0.00 0.01 0.00 28 1007.2
20260901193530 84 211 0.0 4.0 0.00 0.01 0.00 29 1007.3
20260901193029 84 222 0.0 4.0 0.00 0.01 0.00 31 1007.3
20260901192530 83 222 0.0 0.0 0.00 0.01 0.00 30 1007.3
20260901192027 83 222 0.0 7.0 0.00 0.01 0.00 32 1007.5
20260901191530 83 223 2.0 7.0 0.00 0.01 0.00 31 1007.5
20260901191026 83 227 0.0 0.0 0.00 0.01 0.00 30 1007.5
20260901190526 83 228 0.0 0.0 0.00 0.01 0.00 31 1007.6
20260901190027 83 228 0.0 0.0 0.00 0.01 0.00 30 1007.6
20260901185525 83 230 0.0 0.0 0.00 0.01 0.00 32 1007.7
20260901185024 83 231 0.0 8.0 0.00 0.01 0.00 33 1007.8
20260901184523 82 231 0.0 8.0 0.00 0.01 0.00 35 1007.9
20260901184023 82 229 0.0 0.0 0.00 0.01 0.00 34 1008.0
20260901183521 82 229 0.0 0.0 0.00 0.01 0.00 32 1008.0
20260901183032 81 229 0.0 0.0 0.00 0.01 0.00 35 1008.1
20260901182519 81 229 0.0 7.0 0.00 0.01 0.00 32 1008.2
20260901182018 81 229 0.0 7.0 0.00 0.01 0.00 37 1008.3
20260901181516 80 229 0.0 6.0 0.00 0.01 0.00 35 1008.4
20260901181015 80 229 0.0 6.0 0.00 0.01 0.00 36 1008.5
20260901180513 79 229 0.0 0.0 0.00 0.01 0.00 33 1008.5
20260901180018 79 229 0.0 0.0 0.00 0.01 0.00 40 1008.6
20260901175510 78 229 0.0 0.0 0.00 0.01 0.00 40 1008.6
20260901175009 78 229 0.0 0.0 0.00 0.01 0.00 40 1008.7
20260901174508 77 229 0.0 0.0 0.00 0.01 0.00 41 1008.7
20260901174008 77 235 0.0 0.0 0.00 0.01 0.00 42 1008.7
20260901173506 76 235 0.0 0.0 0.00 0.01 0.00 45 1008.8
20260901173002 75 237 0.0 0.0 0.00 0.01 0.00 49 1008.9
20260901172502 74 237 0.0 0.0 0.00 0.01 0.00 48 1008.9
20260901172100 73 237 0.0 0.0 0.00 0.01 0.00 54 1009.0
20260901171602 73 238 0.0 0.0 0.00 0.01 0.00 51 1009.1
20260901171058 72 239 0.0 0.0 0.00 0.01 0.00 52 1009.2
20260901170556 71 239 0.0 0.0 0.00 0.01 0.00 55 1009.2
20260901170100 70 239 0.0 0.0 0.00 0.01 0.00 56 1009.2
20260901165553 70 239 0.0 0.0 0.00 0.01 0.00 54 1009.1
20260901165055 70 239 0.0 0.0 0.00 0.01 0.00 55 1009.2
20260901164551 69 239 0.0 0.0 0.00 0.01 0.00 57 1009.2
20260901164050 69 239 0.0 0.0 0.00 0.01 0.00 59 1009.1
20260901163549 69 239 0.0 0.0 0.00 0.01 0.00 58 1009.1
20260901163107 68 239 0.0 0.0 0.00 0.01 0.00 62 1009.1
20260901162547 68 239 0.0 0.0 0.00 0.01 0.00 61 1009.1
20260901162044 67 239 0.0 0.0 0.00 0.01 0.00 64 1009.1
20260901161550 67 239 0.0 0.0 0.00 0.01 0.00 63 1009.1
20260901161042 67 239 0.0 0.0 0.00 0.01 0.00 64 1009.1
20260901160541 66 239 0.0 0.0 0.00 0.01 0.00 65 1009.2
20260901160041 66 239 0.0 0.0 0.00 0.01 0.00 63 1009.2
20260901155538 66 239 0.0 0.0 0.00 0.01 0.00 64 1009.1
20260901155037 65 239 0.0 0.0 0.00 0.01 0.00 64 1009.1
20260901154536 65 239 0.0 0.0 0.00 0.01 0.00 65 1009.1
20260901154036 65 239 0.0 0.0 0.00 0.01 0.00 67 1009.1
20260901153533 64 239 0.0 0.0 0.00 0.01 0.00 67 1009.1
20260901153031 64 239 0.0 0.0 0.00 0.01 0.00 69 1009.1
20260901152534 64 239 0.0 0.0 0.00 0.01 0.00 68 1009.2
20260901152029 63 239 0.0 0.0 0.00 0.01 0.00 69 1009.1
20260901151528 63 239 0.0 0.0 0.00 0.01 0.00 71 1009.0
20260901151027 63 239 0.0 0.0 0.00 0.01 0.00 72 1008.9
20260901150526 63 239 0.0 0.0 0.00 0.01 0.00 71 1008.9
20260901150024 62 239 0.0 0.0 0.00 0.01 0.00 74 1008.9
20260901145522 61 238 0.0 0.0 0.00 0.01 0.00 75 1008.8
20260901145021 61 238 0.0 0.0 0.00 0.01 0.00 77 1008.8
20260901144520 61 238 0.0 0.0 0.00 0.01 0.00 76 1008.8
20260901144019 60 238 0.0 0.0 0.00 0.01 0.00 78 1008.7
20260901143519 59 238 0.0 0.0 0.00 0.01 0.00 83 1008.7
20260901143019 59 238 0.0 0.0 0.00 0.01 0.00 83 1008.7
20260901142518 59 238 0.0 0.0 0.00 0.01 0.00 83 1008.6
20260901142016 59 238 0.0 0.0 0.00 0.01 0.00 83 1008.4
20260901141521 58 238 0.0 0.0 0.00 0.01 0.00 84 1008.4
20260901141022 58 238 0.0 0.0 0.00 0.01 0.00 85 1008.5
20260901140514 58 238 0.0 0.0 0.00 0.01 0.00 85 1008.5
20260901140012 58 238 0.0 0.0 0.00 0.01 0.00 84 1008.5
20260901135511 58 238 0.0 0.0 0.00 0.01 0.00 84 1008.4
20260901135012 58 238 0.0 0.0 0.00 0.01 0.00 84 1008.4
20260901134511 58 238 0.0 0.0 0.00 0.01 0.00 85 1008.5
20260901134008 58 238 0.0 0.0 0.00 0.01 0.00 85 1008.5
20260901133508 58 238 0.0 0.0 0.00 0.01 0.00 84 1008.4
20260901133007 58 238 0.0 0.0 0.00 0.01 0.00 84 1008.4
20260901132506 58 238 0.0 0.0 0.00 0.01 0.00 84 1008.3
20260901132009 58 238 0.0 0.0 0.00 0.01 0.00 84 1008.3
20260901131506 58 238 0.0 0.0 0.00 0.01 0.00 84 1008.2
20260901131009 58 238 0.0 0.0 0.00 0.01 0.00 84 1008.0
20260901130509 58 238 0.0 0.0 0.00 0.01 0.00 84 1008.0
20260901130009 58 238 0.0 0.0 0.00 0.01 0.00 83 1007.9
20260901125504 58 238 0.0 0.0 0.00 0.01 0.00 83 1007.9
20260901125004 58 238 0.0 0.0 0.00 0.01 0.00 82 1007.8
20260901124505 58 238 0.0 0.0 0.00 0.01 0.00 82 1007.7
20260901124004 58 238 0.0 0.0 0.00 0.01 0.00 82 1007.6
20260901123503 58 238 0.0 0.0 0.00 0.01 0.00 82 1007.6
20260901123003 58 238 0.0 0.0 0.00 0.01 0.00 82 1007.7
20260901122504 58 238 0.0 0.0 0.00 0.01 0.00 82 1007.5
20260901122003 58 238 0.0 0.0 0.00 0.01 0.00 82 1007.5
20260901121504 58 238 0.0 0.0 0.00 0.01 0.00 82 1007.5
20260901121005 58 238 0.0 0.0 0.00 0.01 0.00 82 1007.5
20260901120504 58 238 0.0 0.0 0.00 0.01 0.00 82 1007.5
20260901120002 58 238 0.0 0.0 0.00 0.01 0.00 82 1007.5
20260901115504 58 238 0.0 0.0 0.00 0.01 0.00 82 1007.5
20260901115002 58 238 0.0 0.0 0.00 0.01 0.00 82 1007.4
20260901114501 57 238 0.0 0.0 0.00 0.01 0.00 83 1007.4
20260901114001 57 238 0.0 0.0 0.00 0.01 0.00 84 1007.3
20260901113501 57 238 0.0 0.0 0.00 0.01 0.00 85 1007.3
20260901113002 57 238 0.0 0.0 0.00 0.01 0.00 85 1007.3
20260901112500 56 238 0.0 0.0 0.00 0.01 0.00 85 1007.2
20260901112104 56 238 0.0 0.0 0.00 0.01 0.00 86 1007.2
20260901111604 56 238 0.0 0.0 0.00 0.01 0.00 86 1007.2
20260901111100 56 238 0.0 0.0 0.00 0.01 0.00 86 1007.4
20260901110559 56 238 0.0 0.0 0.00 0.01 0.00 86 1007.4
20260901110058 56 238 0.0 0.0 0.00 0.01 0.00 86 1007.6
20260901105556 56 238 0.0 0.0 0.00 0.01 0.00 86 1007.6
20260901105056 56 238 0.0 0.0 0.00 0.01 0.00 86 1007.7
20260901104600 56 238 0.0 0.0 0.00 0.01 0.00 86 1007.8
20260901104056 56 238 0.0 0.0 0.00 0.01 0.00 86 1007.8
20260901103554 56 238 0.0 0.0 0.00 0.01 0.00 86 1007.9
20260901103059 56 238 0.0 0.0 0.00 0.01 0.00 86 1007.9
20260901102554 56 238 0.0 0.0 0.00 0.01 0.00 86 1008.0
20260901102054 56 238 0.0 0.0 0.00 0.01 0.00 86 1008.1
20260901101605 56 238 0.0 0.0 0.00 0.01 0.00 86 1008.1
20260901101155 56 238 0.0 0.0 0.00 0.01 0.00 86 1008.1
20260901100552 56 238 0.0 0.0 0.00 0.01 0.00 86 1008.1
20260901100057 56 238 0.0 0.0 0.00 0.01 0.00 86 1008.2
20260901095552 56 238 0.0 0.0 0.00 0.01 0.00 86 1008.3
20260901095050 56 238 0.0 0.0 0.00 0.01 0.00 85 1008.3
20260901094550 56 238 0.0 0.0 0.00 0.01 0.00 85 1008.4
20260901094052 56 238 0.0 0.0 0.00 0.01 0.00 85 1008.5
20260901093548 56 238 0.0 0.0 0.00 0.01 0.00 84 1008.6
20260901093047 56 238 0.0 0.0 0.00 0.01 0.00 84 1008.6
20260901092547 56 238 0.0 0.0 0.00 0.01 0.00 84 1008.5
20260901092047 57 238 0.0 0.0 0.00 0.01 0.00 84 1008.6
20260901091546 57 238 0.0 0.0 0.00 0.01 0.00 85 1008.6
20260901091046 57 238 0.0 0.0 0.00 0.01 0.00 85 1008.5
20260901090548 57 238 0.0 0.0 0.00 0.01 0.00 85 1008.5
20260901090046 57 238 0.0 0.0 0.00 0.01 0.00 85 1008.5
20260901085544 57 238 0.0 0.0 0.00 0.01 0.00 85 1008.6
20260901085044 57 238 0.0 0.0 0.00 0.01 0.00 85 1008.5
20260901084548 57 238 0.0 0.0 0.00 0.01 0.00 86 1008.6
20260901084043 57 238 0.0 0.0 0.00 0.01 0.00 86 1008.7
20260901083544 57 238 0.0 0.0 0.00 0.01 0.00 86 1008.8
20260901083042 57 238 0.0 0.0 0.00 0.01 0.00 85 1008.8
20260901082541 57 238 0.0 0.0 0.00 0.01 0.00 85 1008.7
20260901082041 57 238 0.0 0.0 0.00 0.01 0.00 85 1008.8
20260901081541 57 238 0.0 0.0 0.00 0.01 0.00 85 1008.8
20260901081041 57 238 0.0 0.0 0.00 0.01 0.00 85 1008.9
20260901080540 57 238 0.0 0.0 0.00 0.01 0.00 85 1009.0
20260901080050 57 238 0.0 0.0 0.00 0.01 0.00 84 1009.0
20260901075539 58 238 0.0 0.0 0.00 0.01 0.00 85 1009.1
20260901075039 58 238 0.0 0.0 0.00 0.01 0.00 84 1009.1
20260901074543 58 238 0.0 0.0 0.00 0.01 0.00 85 1009.2
20260901074041 58 238 0.0 0.0 0.00 0.01 0.00 85 1009.1
20260901073538 58 238 0.0 0.0 0.00 0.01 0.00 85 1009.1
20260901073046 58 238 0.0 0.0 0.00 0.01 0.00 85 1009.0
20260901072538 58 238 0.0 0.0 0.00 0.01 0.00 84 1009.0
20260901072041 58 238 0.0 0.0 0.00 0.01 0.00 84 1009.2
20260901071538 58 238 0.0 0.0 0.00 0.01 0.00 84 1009.2
20260901071036 58 238 0.0 0.0 0.00 0.01 0.00 83 1009.2
20260901070538 58 238 0.0 0.0 0.00 0.01 0.00 83 1009.2
20260901070035 58 238 0.0 0.0 0.00 0.01 0.00 82 1009.2
20260901065534 58 238 0.0 0.0 0.00 0.01 0.00 82 1009.1
20260901065034 59 238 0.0 0.0 0.00 0.01 0.00 82 1009.0
20260901064536 59 238 0.0 0.0 0.00 0.01 0.00 82 1009.0
20260901064033 59 238 0.0 0.0 0.00 0.01 0.00 82 1008.9
20260901063632 59 238 0.0 0.0 0.00 0.01 0.00 82 1009.0
20260901063033 59 238 0.0 0.0 0.00 0.01 0.00 82 1009.0
20260901062530 59 238 0.0 0.0 0.00 0.01 0.00 81 1009.1
20260901062030 59 238 0.0 0.0 0.00 0.01 0.00 81 1009.0
20260901061530 59 238 0.0 0.0 0.00 0.01 0.00 81 1008.9
20260901061029 60 238 0.0 0.0 0.00 0.01 0.00 80 1008.9
20260901060529 60 238 0.0 0.0 0.00 0.01 0.00 80 1009.0
20260901060037 60 238 0.0 0.0 0.00 0.01 0.00 80 1009.0
20260901055526 60 238 0.0 0.0 0.00 0.01 0.01 80 1009.0
20260901055026 60 238 0.0 0.0 0.00 0.01 0.01 80 1009.5
20260901054526 60 238 0.0 0.0 0.00 0.01 0.01 80 1009.7
20260901054027 60 238 0.0 0.0 0.00 0.01 0.01 80 1009.7
20260901053526 60 238 0.0 0.0 0.00 0.01 0.01 80 1009.6
20260901053028 60 238 0.0 0.0 0.00 0.01 0.01 80 1009.6
20260901052525 60 238 0.0 0.0 0.00 0.01 0.01 81 1009.7
20260901052025 60 238 0.0 0.0 0.00 0.01 0.01 81 1009.7
20260901051526 60 238 0.0 0.0 0.00 0.01 0.01 81 1009.7
20260901051025 60 238 0.0 0.0 0.00 0.01 0.01 82 1009.5
20260901050525 60 238 0.0 0.0 0.00 0.01 0.01 81 1009.2
20260901050025 60 238 0.0 0.0 0.00 0.01 0.01 82 1009.0
20260901045524 60 238 0.0 0.0 0.00 0.01 0.01 82 1009.2
20260901045024 60 238 0.0 0.0 0.00 0.01 0.01 82 1009.2
20260901044524 60 238 0.0 0.0 0.00 0.01 0.01 82 1009.1
20260901044024 60 238 0.0 0.0 0.00 0.01 0.01 82 1008.9
20260901043527 60 238 0.0 0.0 0.00 0.01 0.01 81 1008.7
20260901043024 60 238 0.0 0.0 0.00 0.01 0.01 80 1008.6
20260901042523 60 238 0.0 0.0 0.00 0.01 0.01 80 1008.7
20260901042023 61 238 0.0 0.0 0.00 0.01 0.01 81 1008.6
20260901041524 61 238 0.0 0.0 0.00 0.01 0.01 80 1008.5
20260901041024 61 238 0.0 0.0 0.00 0.01 0.01 80 1008.6
20260901040523 61 238 0.0 0.0 0.00 0.01 0.01 80 1008.7
20260901040023 61 238 0.0 0.0 0.00 0.01 0.01 80 1008.7
20260901035523 61 238 0.0 0.0 0.00 0.01 0.01 80 1008.8
20260901035024 62 238 0.0 0.0 0.01 0.01 0.01 80 1009.0
20260901034523 62 238 0.0 0.0 0.01 0.01 0.01 80 1009.2
20260901034021 62 238 0.0 0.0 0.01 0.01 0.01 79 1009.3
20260901033524 62 238 0.0 0.0 0.01 0.01 0.01 79 1009.3
20260901033021 62 238 0.0 0.0 0.01 0.01 0.01 79 1009.2
20260901032521 63 238 0.0 0.0 0.01 0.01 0.01 79 1009.3
20260901032021 63 238 0.0 0.0 0.01 0.01 0.01 79 1009.4
20260901031523 63 238 0.0 0.0 0.01 0.01 0.01 78 1009.5
20260901031020 63 238 0.0 0.0 0.01 0.01 0.01 78 1009.7
20260901030520 63 238 0.0 0.0 0.01 0.01 0.01 78 1009.5
20260901030020 63 238 0.0 9.0 0.01 0.01 0.01 77 1009.6
20260901025520 64 238 2.0 10.0 0.01 0.01 0.01 76 1009.8
20260901025019 65 233 2.0 10.0 0.00 0.00 0.00 75 1009.8
20260901024519 65 253 2.0 13.0 0.00 0.00 0.00 73 1009.5
20260901024019 66 261 0.0 20.0 0.00 0.00 0.00 70 1009.3
20260901023521 67 264 5.0 24.0 0.00 0.00 0.00 69 1009.7
20260901023019 68 260 9.0 25.0 0.00 0.00 0.00 66 1009.8
20260901022518 70 263 11.0 33.0 0.00 0.00 0.00 63 1009.5
20260901022017 71 288 19.0 44.0 0.00 0.00 0.00 57 1009.4
20260901021525 72 268 22.0 44.0 0.00 0.00 0.00 49 1009.0
20260901021018 73 214 0.0 1.0 0.00 0.00 0.00 44 1008.3
20260901020517 73 164 0.0 0.0 0.00 0.00 0.00 42 1007.8
20260901020016 73 164 0.0 0.0 0.00 0.00 0.00 43 1007.5
20260901015516 73 164 0.0 0.0 0.00 0.00 0.00 42 1007.3
20260901015016 74 164 0.0 0.0 0.00 0.00 0.00 42 1007.1
20260901014516 74 164 0.0 0.0 0.00 0.00 0.00 42 1007.0
20260901014016 74 164 0.0 6.0 0.00 0.00 0.00 41 1006.8
20260901013516 74 164 0.0 6.0 0.00 0.00 0.00 41 1006.8
20260901013016 74 166 0.0 3.0 0.00 0.00 0.00 42 1006.7
20260901012516 75 149 0.0 6.0 0.00 0.00 0.00 42 1006.7
20260901012015 75 149 0.0 13.0 0.00 0.00 0.00 43 1006.6
20260901011516 75 140 3.0 13.0 0.00 0.00 0.00 43 1006.4
20260901011017 75 142 2.0 12.0 0.00 0.00 0.00 43 1006.5
20260901010515 75 141 2.0 12.0 0.00 0.00 0.00 44 1006.5
20260901010022 75 142 4.0 9.0 0.00 0.00 0.00 43 1006.4
20260901005516 75 139 0.0 8.0 0.00 0.00 0.00 42 1006.4
20260901005117 76 139 0.0 6.0 0.00 0.00 0.00 42 1006.6
20260901004513 76 139 0.0 6.0 0.00 0.00 0.00 40 1006.6
20260901004011 76 139 0.0 4.0 0.00 0.00 0.00 39 1006.9
20260901003511 76 139 0.0 4.0 0.00 0.00 0.00 40 1006.9
20260901003017 77 139 0.0 5.0 0.00 0.00 0.00 40 1006.9
20260901002511 77 139 0.0 6.0 0.00 0.00 0.00 39 1007.0
20260901002015 77 139 0.0 13.0 0.00 0.00 0.00 39 1007.0
20260901001510 78 139 4.0 13.0 0.00 0.00 0.00 38 1007.0
20260901001010 78 140 0.0 9.0 0.00 0.00 0.00 39 1007.0
20260901000510 78 140 0.0 11.0 0.00 0.00 0.00 37 1007.0
20260901000009 78 146 0.0 11.0 0.00 0.00 0.00 37 1007.0
20260831235509 78 146 0.0 11.0 0.00 0.00 0.00 37 1007.1
20260831235008 78 143 2.0 9.0 0.00 0.00 0.00 37 1007.1
20260831234508 78 145 2.0 9.0 0.00 0.00 0.00 37 1007.2
20260831234008 79 149 2.0 9.0 0.00 0.00 0.00 36 1007.2
20260831233507 79 152 2.0 9.0 0.00 0.00 0.00 37 1007.1
20260831233007 79 146 0.0 17.0 0.00 0.00 0.00 37 1007.2
20260831232511 79 147 3.0 17.0 0.00 0.00 0.00 36 1007.2
20260831232007 79 142 1.0 11.0 0.00 0.00 0.00 35 1007.3
20260831231512 78 140 2.0 11.0 0.00 0.00 0.00 38 1007.3
20260831231006 78 138 2.0 10.0 0.00 0.00 0.00 38 1007.3
20260831230506 78 139 4.0 13.0 0.00 0.00 0.00 38 1007.3
20260831230008 78 139 5.0 13.0 0.00 0.00 0.00 37 1007.4
20260831225603 79 148 2.0 13.0 0.00 0.01 0.00 36 1007.5
20260831225003 79 140 6.0 12.0 0.00 0.01 0.00 34 1007.6
20260831224503 79 148 1.0 13.0 0.00 0.01 0.00 35 1007.6
20260831224003 80 142 1.0 13.0 0.00 0.01 0.00 36 1007.6
20260831223603 80 142 5.0 13.0 0.00 0.01 0.00 34 1007.7
20260831223000 80 151 1.0 8.0 0.00 0.01 0.00 35 1007.8
20260831222501 80 151 3.0 13.0 0.00 0.01 0.00 34 1007.8
20260831222100 80 146 4.0 13.0 0.00 0.01 0.00 35 1007.9
20260831221601 80 143 5.0 15.0 0.00 0.01 0.00 34 1008.0
20260831221059 79 146 5.0 15.0 0.00 0.01 0.00 33 1008.0
20260831220559 79 158 1.0 10.0 0.00 0.01 0.00 37 1008.0
20260831220059 79 154 0.0 8.0 0.00 0.01 0.00 36 1008.1
20260831215559 79 154 1.0 5.0 0.00 0.01 0.00 36 1008.0
20260831215058 79 154 0.0 4.0 0.00 0.01 0.00 35 1008.1
20260831214608 79 154 0.0 9.0 0.00 0.01 0.00 34 1008.2
20260831214058 79 154 1.0 9.0 0.00 0.01 0.00 34 1008.2
20260831213556 80 156 1.0 10.0 0.00 0.01 0.00 34 1008.3
20260831213058 80 154 3.0 10.0 0.00 0.01 0.00 32 1008.4
20260831212555 81 152 3.0 11.0 0.00 0.01 0.00 32 1008.5
20260831212057 82 153 4.0 17.0 0.00 0.01 0.00 32 1008.4
20260831211556 82 141 4.0 17.0 0.00 0.01 0.00 31 1008.4